Home   Weather   Pamplona   Past weeks

Flag for Spain Past Weather in Pamplona, Spain — Yesterday and Last 2 Weeks

Now
50 °F

Clear.


Feels Like: 50 °F
Forecast: 33 / 59 °F
Wind: No wind

Location: Pamplona / Noain

Current Time: Feb 25, 2017 at 9:48:10 pm

Latest Report: Feb 25, 2017 at 9:00 pm


Visibility: 10 mi

Pressure: 30.09 "Hg

Humidity: 54%

Dew Point: 34 °F

Location of PamplonaLocation

Past Weather in Pamplona — Graph

°F

Pamplona Temperature Yesterday

Maximum temperature yesterday: 48 °F (at 12:00 am)
Minimum temperature yesterday: 39 °F (at 11:30 pm)
Average temperature yesterday: 46 °F

High & Low Weather Summary for the Past Weeks

 TemperatureHumidityPressure
High66 °F (Feb 25, 3:00 pm)100% (Feb 11, 5:00 am)30.51 "Hg (Feb 11, 5:00 am)
Low32 °F (Feb 11, 5:00 am)22% (Feb 25, 3:00 pm)29.65 "Hg (Feb 12, 3:30 pm)
Average46 °F79%30.16 "Hg
* Reported Feb 10 8:00 pm — Feb 25 8:30 pm, Pamplona, Weather by CustomWeather, © 2017

Note: Actual official high and low records may vary slightly from our data, if they occured in-between our weather recording intervals... More about our weather records

Advertising

Pamplona Weather History for the Previous 24 Hours

Scroll right to see more
 ConditionsComfort  
Time TempWeatherWind HumidityBarometerVisibility
8:30 pm
Sat, Feb 25
52 °FClear.1 mph47%30.09 "Hg10 mi
8:00 pm54 °FClear.No wind41%30.09 "Hg10 mi
7:30 pm55 °FClear.2 mph36%30.07 "Hg10 mi
7:00 pm57 °FClear.7 mph33%30.07 "Hg10 mi
6:30 pm59 °FSunny.7 mph29%30.07 "Hg10 mi
6:00 pm63 °FSunny.7 mph25%30.04 "Hg10 mi
5:30 pm64 °FSunny.9 mph24%30.04 "Hg10 mi
5:00 pm66 °FPassing clouds.7 mph24%30.01 "HgN/A
4:30 pm66 °FPassing clouds.7 mph22%30.04 "HgN/A
4:00 pm66 °FPassing clouds.6 mph22%30.04 "HgN/A
3:30 pm66 °FPassing clouds.5 mph22%30.04 "HgN/A
3:00 pm66 °FPassing clouds.3 mph22%30.04 "HgN/A
2:30 pm64 °FSunny.3 mph24%30.04 "Hg10 mi
2:00 pm61 °FSunny.1 mph29%30.07 "Hg10 mi
1:30 pm59 °FPassing clouds.3 mph36%30.07 "HgN/A
1:00 pm57 °FSunny.1 mph41%30.09 "Hg10 mi
12:30 pm54 °FSunny.No wind44%30.09 "Hg10 mi
12:00 pm54 °FSunny.No wind47%30.09 "Hg10 mi
11:30 am48 °FSunny.No wind54%30.12 "Hg10 mi
11:00 am46 °FSunny.No wind62%30.12 "Hg10 mi
10:30 am45 °FSunny.No wind61%30.12 "Hg10 mi
10:00 am45 °FSunny.2 mph61%30.12 "Hg10 mi
9:30 am43 °FSunny.2 mph66%30.12 "Hg10 mi
9:00 am39 °FSunny.6 mph81%30.12 "Hg10 mi
8:30 am37 °FSunny.No wind81%30.12 "Hg10 mi
8:00 am37 °FPassing clouds.5 mph81%30.12 "HgN/A
7:30 am34 °FPassing clouds.3 mph87%30.12 "HgN/A
7:01 am36 °FClear.2 mph81%30.12 "Hg10 mi
6:30 am37 °FClear.No wind81%30.09 "Hg10 mi
6:00 am36 °FClear.2 mph87%30.09 "Hg10 mi
5:30 am36 °FClear.3 mph87%30.12 "Hg10 mi
5:00 am37 °FChilly.5 mph81%30.12 "HgN/A
4:30 am37 °FChilly.1 mph81%30.12 "HgN/A
4:00 am37 °FChilly.7 mph81%30.12 "HgN/A
3:30 am39 °FChilly.10 mph75%30.12 "HgN/A
3:00 am39 °FChilly.12 mph75%30.15 "HgN/A
2:30 am39 °FChilly.14 mph81%30.15 "HgN/A
2:00 am39 °FChilly.15 mph81%30.15 "HgN/A
1:30 am39 °FChilly.12 mph81%30.15 "HgN/A
1:00 am39 °FChilly.12 mph81%30.18 "HgN/A
12:30 am39 °FPassing clouds.3 mph81%30.18 "HgN/A
12:00 am39 °FPassing clouds.3 mph81%30.18 "HgN/A
11:30 pm
Fri, Feb 24
39 °FPassing clouds.7 mph81%30.18 "HgN/A
11:00 pm41 °FPassing clouds.6 mph76%30.18 "HgN/A
10:30 pm41 °FPassing clouds.9 mph76%30.18 "HgN/A
10:00 pm41 °FPassing clouds.10 mph76%30.18 "HgN/A
9:30 pm43 °FPassing clouds.15 mph71%30.18 "HgN/A
9:00 pm43 °FPassing clouds.14 mph71%30.18 "HgN/A
Weather by CustomWeather, © 2017

See weather overviewHow to use our weather pages